This demonstration page uses our WeatherBlox Daily Observations layout. Learn more.

Left ArrowRight Arrow

39.92423, -83.80882

Hourly Observations for November 21, 2020

Temp ( °F °C ) Dew Point ( °F °C ) Humidity (%) Winds ( mph kmh ) Pressure ( in mb ) Visibility ( mi km ) Precip ( " mm )
12:56 am 00:56 Cloudy 52 11.1 50 10 93 93 NW 5 7 30.39 1029 10 16 0.00 0.00
1:56 am 01:56 Cloudy 52 11.1 49 9.4 89 89 WNW 6 9 30.40 1029 10 16 0.00 0.00
2:56 am 02:56 Cloudy 51 10.6 48 8.9 89 89 NNW 8 13 30.40 1030 10 16 0.00 0.00
3:56 am 03:56 Cloudy with Light Rain 49 9.4 47 8.3 93 93 N 9 15 30.41 1030 10 16 0.00 0.00
4:56 am 04:56 Cloudy with Light Rain 47 8.3 46 7.8 97 97 N 9 15 30.42 1030 10 16 0.00 0.00
5:56 am 05:56 Cloudy with Light Rain 45 7.2 42 5.6 90 90 N 8 13 30.44 1031 10 16 0.00 0.00
6:56 am 06:56 Cloudy with Light Rain 43 6.1 43 6.1 100 100 NNE 5 7 30.45 1031 10 16 0.00 0.00
7:56 am 07:56 Cloudy with Light Rain 43 6.1 43 6.1 100 100 N 3 6 30.47 1032 10 16 0.00 0.00
8:56 am 08:56 Cloudy with Light Rain 43 6.1 43 6.1 100 100 Calm 30.48 1032 6 10 0.00 0.00
9:56 am 09:56 Cloudy with Light Rain 43 6.1 43 6.1 100 100 N 6 9 30.50 1033 10 16 0.00 0.00
10:24 am 10:24 Cloudy with Light Rain 43 6 43 6 100 100 NNE 6 9 30.51 1033 8 13 0.00 0.00
10:56 am 10:56 Cloudy with Light Rain 43 6.1 43 6.1 100 100 N 7 11 30.50 1033 9 14 0.00 0.00
11:18 am 11:18 Cloudy with Light Rain 43 6 43 6 100 100 NE 8 13 30.50 1033 10 16 0.00 0.00
11:26 am 11:26 Cloudy with Light Rain 43 6 43 6 100 100 NE 8 13 30.49 1032 9 14 0.00 0.00
11:56 am 11:56 Cloudy 43 6.1 43 6.1 100 100 NNE 8 13 30.48 1032 8 13 0.00 0.00
12:15 pm 12:15 Cloudy 45 7 45 7 100 100 NNE 7 11 30.48 1032 8 13 0.00 0.00
12:56 pm 12:56 Cloudy with Light Rain 44 6.7 44 6.7 100 100 NE 7 11 30.46 1032 7 11 0.00 0.00
1:56 pm 13:56 Cloudy with Light Rain 44 6.7 44 6.7 100 100 ENE 7 11 30.45 1031 7 11 0.00 0.00
2:22 pm 14:22 Cloudy with Light Rain 45 7 45 7 100 100 ENE 7 11 30.45 1031 7 11 0.00 0.00
2:56 pm 14:56 Cloudy 45 7.2 45 7.2 100 100 N 7 11 30.45 1031 8 13 0.00 0.00
3:10 pm 15:10 Cloudy 45 7 45 7 100 100 NNE 7 11 30.45 1031 9 14 0.00 0.00
3:44 pm 15:44 Cloudy with Light Rain 45 7 45 7 100 100 NNE 8 13 30.44 1031 8 13 0.00 0.00
3:56 pm 15:56 Cloudy with Light Rain 44 6.7 44 6.7 100 100 NE 9 15 30.44 1031 10 16 0.00 0.00
4:04 pm 16:04 Cloudy 45 7 45 7 100 100 NE 9 15 30.44 1031 9 14 0.00 0.00
4:56 pm 16:56 Cloudy with Mist and Fog 44 6.7 44 6.7 100 100 ENE 8 13 30.45 1031 6 10 0.00 0.00
5:04 pm 17:04 Cloudy with Mist and Fog 45 7 45 7 100 100 ENE 7 11 30.45 1031 6 10 0.00 0.00
5:37 pm 17:37 Cloudy 43 6 43 6 100 100 NE 9 15 30.46 1031 10 16 0.00 0.00
5:56 pm 17:56 Cloudy 43 6.1 43 6.1 100 100 NE 6 9 30.45 1031 10 16 0.00 0.00
6:56 pm 18:56 Cloudy 43 6.1 42 5.6 97 97 ENE 9 15 30.44 1031 10 16 0.00 0.00
7:54 pm 19:54 Cloudy 43 6 43 6 100 100 ENE 8 13 30.43 1030 10 16 0.00 0.00
7:56 pm 19:56 Cloudy 43 6.1 42 5.6 97 97 ENE 9 15 30.43 1030 10 16 0.00 0.00
8:29 pm 20:29 Cloudy 43 6 43 6 100 100 E 8 13 30.42 1030 10 16 0.00 0.00
8:51 pm 20:51 Cloudy 43 6 43 6 100 100 ENE 9 15 30.42 1030 10 16 0.00 0.00
8:56 pm 20:56 Cloudy 43 6.1 42 5.6 97 97 ENE 9 15 30.41 1030 10 16 0.00 0.00
9:31 pm 21:31 Cloudy 43 6 43 6 100 100 ENE 10 17 30.40 1029 10 16 0.00 0.00
9:56 pm 21:56 Cloudy 42 5.6 42 5.6 100 100 ENE 9 15 30.40 1029 10 16 0.00 0.00
10:56 pm 22:56 Cloudy 42 5.6 42 5.6 100 100 ENE 8 13 30.39 1029 10 16 0.00 0.00
11:47 pm 23:47 Cloudy 43 6 43 6 100 100 ENE 13 20 30.37 1028 10 16 0.00 0.00
11:54 pm 23:54 Cloudy 43 6 43 6 100 100 ENE 12 19 30.37 1028 10 16 0.00 0.00
11:56 pm 23:56 Cloudy with Light Rain 42 5.6 42 5.6 100 100 ENE 13 20 30.36 1028 10 16 0.00 0.00

Powered by AerisWeather